Вернуться в каталог

ONEWEB-0570

АктивенСвязьPO
NORAD 55149·PAYLOAD·🇬🇧 United Kingdom

Запущен Jan 10, 2023 с Cape Canaveral Space Force Station

Loading…

Ближайшие Пролёты (ближайшие 24 часа)

TLE

СвежийSource: CelesTrak SupGP

Эпоха: Sep 14, 2026, 09:11 UTC

1 55149C 23004K   26257.38279352 -.00003199  00000+0 -81239-2 0  2579
2 55149  87.9162 317.7427 0001912 113.6256 358.2548 13.18689276    14

Отслеживайте ONEWEB-0570 в реальном времени с AllMySat

Download on the App Store